Hourly Data Report for September 05, 2004

SHERBROOKE A
QUEBEC

45°26'00.000" N
71°41'00.000" W
241.40 m
7028124
71610
YSC

Download Data

Hourly Data (September 2004)
Hourly Data Report for September 5, 2004
TIME
LST
Temp Definition
°C
Dew Point Definition
°C
Rel Hum Definition
%
Precip. Amount Definition
mm

Wind Dir Definition
10's deg

Wind Spd Definition
km/h
Visibility Definition
km
Stn Press Definition
kPa
Hmdx Definition


Wind Chill Definition


Weather Definition


00:00 9.1 7.4 89   5 9 15.0 99.79      
01:00 8.4 6.9 90   7 13 15.0 99.77      
02:00 8.5 6.9 90   8 7 15.0 99.78      
03:00 8.8 7.0 88   7 7 15.0 99.85      
04:00 9.3 7.2 87   7 9 15.0 99.92      
05:00 8.1 6.7 91   6 6 15.0 99.94      
06:00 8.5 7.2 92   7 11 15.0 100.03      
07:00 10.4 8.3 87   6 9 24.1 100.06     Mostly Cloudy
08:00 12.4 9.2 81   5 6 24.1 100.08     Mainly Clear
09:00 16.0 10.1 68   18 7 24.1 100.03     Mainly Clear
10:00 17.7 10.6 63   22 9 24.1 100.03     Mainly Clear
11:00 18.7 11.0 61   17 15 24.1 100.00     Mostly Cloudy
12:00 20.1 11.4 57   20 17 24.1 99.93     Mostly Cloudy
13:00 20.1 10.6 54   20 15 24.1 99.88     Mostly Cloudy
14:00 20.8 11.8 56   24 17 15.0 99.86      
15:00 20.8 11.6 56   21 22 24.1 99.83     Mainly Clear
16:00 19.8 11.4 58   23 13 24.1 99.84     Mainly Clear
17:00 18.4 12.2 67   22 7 15.0 99.84      
18:00 16.9 11.9 72   20 7 15.0 99.87      
19:00 14.9 11.5 80   17 7 15.0 99.88      
20:00 14.5 10.8 78   17 11 15.0 99.92      
21:00 13.5 10.7 83   15 7 15.0 99.91      
22:00 11.6 10.0 90   12 6 15.0 99.92      
23:00 11.2 9.8 91   13 7 15.0 99.88      

Notes on Data Quality.

Legend

  • E = Estimated
  • M = Missing
  • NA = Not Available*
  • [empty] = Indicates an unobserved value
Date modified: